Погода в Бухаре

Погода в Бухаре : погода сейчас, прогноз погоды и архив. Всё, что Вы хотите узнать о погоде в Бухаре!

Поиск расширенной информации на нашем сайте:

Другие новости

Новости СМИ2

Главная страница сайта

Новости сайта

03.07.2017

Напоминаем, что на нашем специализированном сайте Метеоцентр.Азия вы можете получить высокодетализированные автоматические прогнозы погоды по пунктам России, СНГ и мира в авиационном формате (включающие направление и скорость ветра, видимость, явления погоды, количество и форму облачности, нижнюю и верхнюю границу облачности).

Рекомендуем: купить сейф для денег

Погода в Бухаре - сегодня

Время (UTC), дата Ветер
(°,м/с) 
Видим.   Явления Облачность Т
(°С)
Тd
(°С)
f(%) Тe
(°С)
Pmin
(гПа)
dP
(гПа)
Po
(мм)
O2
(г/м3)
Тmin Tmax R s Состояние
почвы
00 19.09.17 340 (С) 10 км    ясно 
+14.9 +1.3 40 +15  1015.2  -0.2  741  283           
03 19.09.17 360 (С) 10 км    ясно 
+17.6 +1.1 33 +18  1016.4  1.3  742  281           
06 19.09.17 360 (С) 10 км    ясно 
+27.5 +2.9 20 +28  1015.7  0.2  743  271  +14.4         
09 19.09.17 360 (С) 10 км    ясно 
+32.8 -1.7 11 +33  1014  -1.3  742  267           
12 19.09.17 360 (С) 10 км    ясно 
+31.5 -0.2 13 +32  1013.2  -0.8  741  268           
15 19.09.17 340 (С) 10 км    ясно 
+24.9 +3.6 25 +25  1014  0.3  741  273    +33       
18 19.09.17 360 (С) 10 км    ясно 
+20.7 +2.7 30 +21  1014.1  -0.3  741  277    +33       
21 19.09.17 тихо ()   10 км    ясно 
+16.5 +3.2 41 +17  1013.7  -0.8  740  281           
00 20.09.17 360 (С) 10 км    ясно 
+15.7 +2.7 42 +16  1013.1  -0.6  740  281    +1.3       
03 20.09.17 340 (С) 10 км    ясно 
+18 +4.6 41 +18  1013.2  0.5  751  283           
06 20.09.17 360 (С) 10 км    ясно 
+27 +5.9 26 +27  1012.7  0.3  740  271  +15.4         
09 20.09.17 020 (С) 4000 м  пыльная буря  ясно 
+33.2 +0.2 12 +33  1010.6  -1.6  739  265           
12 20.09.17 360 (С) 10 км    ясно 
+32 +3.8 17 +32  1010.1  -0.5  739  266           
15 20.09.17 340 (С) 10 км    ясно 
+25.4 +4 25 +25  1011.1  0.4  739  272    +33.4       
18 20.09.17 340 (С) 10 км    ясно 
+22.2 +3.6 30 +22  1010.7  -0.7  739  275    +33.4       
21 20.09.17 340 (С) 10 км    ясно 
+19.1 +3.8 36 +20  1010.4  -0.6  738  277           
00 21.09.17 340 (С) 10 км    ясно 
+16.7 +2.7 39 +17  1010.7  0.1  738  280           
03 21.09.17 360 (С) 10 км    ясно 
+16.9 +3 39 +17  1011.3  0.5  751  284           
06 21.09.17 360 (С) 10 км    ясно 
+26.5 +5.3 26 +27  1010.7  0.3  739  271  +15.5         
09 21.09.17 360 (С) 10 км    ясно 
+29.9 +2.5 17 +30  1009.5  -0.9  738  268           
12 21.09.17 340 (С) 10 км    ясно 
+31.6 +0.9 14 +32  1008.8  -0.6  738  266           
15 21.09.17 340 (С) 10 км    ясно 
+24.3 +3.8 26 +24  1009.9  0.5  738  273    +32       
18 21.09.17 360 (С) 10 км    ясно 
+20.2 +3 32 +20  1010.2  -0.1  738  276    +32       
21 21.09.17 340 (С) 10 км    ясно 
+19.7 +1.9 31 +21  1009.7  -0.5  738  277           
00 22.09.17 360 (С) 10 км    ясно 
+16.4 +3 41 +16  1010.3  0.2  738  280           
Время (UTC), дата Ветер
(°,м/с) 
Видим.   Явления Облачность Т
(°С)
Тd
(°С)
f(%) Тe
(°С)
Pmin
(гПа)
dP
(гПа)
Po
(мм)
O2
(г/м3)
Тmin Tmax R s Состояние
почвы

Для получения пояснительной информации подведите курсор к названию столбца.

ПОГОДА в Бухаре - архив

Всё, что Вы хотите узнать о погоде в Бухаре - удобно и подробно!

Выберите нужную дату (начиная с 1 января 2015* года) и нажмите кнопку "Найти".
Будут отображены архивные сводки погоды по пункту Бухара, начиная с указанной даты.


Отображать данные в формате CSV (для использования в таблицах Excel)


Внимание! Наш архив погоды предназначен исключительно для личного некоммерческого использования в познавательных целях. Если Вам необходимы официальные справки о состоянии погоды (для производственных, юридических, коммерческих и т.п. целей), обращайтесь в органы Росгидромета.

*Примечание: данная дата относится к архиву по метеостанциям СССР (Россия, СНГ, Балтия).
Архив по метеостанциям Зарубежной Европы и Азии (кроме Китая) хранится 10 дней, по другим регионам земного шара (Китай, Африка, Америка, Австралия, Океания) - 1 день.

Бухара - район местоположения метеостанции


Название, широта, долгота, высота метеостанции:
Бухара 39.7°ш. 64.6°д. 226 м над ур. моря [Узбекистан]

Дополнительная информация

В oтличие oт бoльшинства пoгoдных сайтoв мы публикуем пoдрoбную метеoинфoрмацию в детальнoм прoфессиoнальнoм фoрмате.

Характеристики температуры и влажнoсти вoздуха измеряются на высoте 2 м в тени вдали oт зданий и деревьев.
Скoрoсть ветра измеряется на высoте 10 м (на урoвне рoста челoвека скoрoсть ветра ниже в 1.5-2 раза). Если метеoстанция нахoдится в гoрoде или в лесу, тo скoрoсть ветра занижена на 2-4 м/с пo сравнению с oткрытым местoм. Скoрoсть ветра над акватoриями крупных рек и oзёр, а также на вершинах хoлмoв на 2-5 м/с выше, чем в oбычных услoвиях.
Атмoсфернoе давление в разных тoчках местнoсти мoжет значительнo oтличаться oт давления на метеoстанции, в зависимoсти oт услoвий рельефа (при пoдъёме на 10 м давление пoнижается примернo на 1 мм рт.ст.).